Flag Weather past 2 weeks in Traralgon, Victoria, Australia

Now
53 °F

Overcast.


Feels Like: 50 °F
Forecast: 44 / 72 °F
Wind: 7 mph from West

Location: Latrobe Valley Airport

Current Time: Nov 27, 2014 at 3:56:55 AM

Latest Report: Nov 27, 2014 at 3:00 AM


Visibility: N/A

Pressure: 30.22 "Hg

Humidity: 74%

Dew point: 44 °F

Location of TraralgonLocation

Historic Weather in Traralgon — Graph

°F

Traralgon temperature yesterday

Maximum temperature yesterday: 63 °F (at 1:00 PM)
Minimum temperature yesterday: 50 °F (at 4:00 AM)
Average temperature yesterday: 56 °F

Past Weeks' High & Low Weather Summary

 TemperatureHumidityPressure
High86 °F (Nov 13, 3:00 PM)100% (Nov 12, 6:00 AM)30.24 "Hg (Nov 12, 6:00 AM)
Low37 °F (Nov 12, 6:00 AM)25% (Nov 13, 3:00 PM)29.65 "Hg (Nov 20, 3:00 PM)
Average61 °F74%29.91 "Hg
* Reported Nov 12 1:00 AM — Nov 27 1:00 AM, Traralgon, Weather by CustomWeather, © 2014

Note: Actual official high and low records may vary slightly from our data, if they occured in-between our weather recording intervals... More about our weather records

Advertising

Traralgon weather history for previous 24 hours

 ConditionsComfort  
Time TempWeatherWind HumidityBarometerVisibility
1:00 AM
Nov 27
53 °FCool.9 mph70%30.24 "HgN/A
12:00 AM54 °FOvercast.9 mph71%30.24 "HgN/A
10:00 PM
Nov 26
52 °FCool.10 mph83%30.23 "HgN/A
9:00 PM53 °FCool.12 mph81%30.20 "HgN/A
7:00 PM59 °FCool.14 mph74%30.17 "HgN/A
6:00 PM60 °FOvercast.15 mph79%30.15 "HgN/A
4:00 PM62 °FCool.15 mph72%30.14 "HgN/A
3:00 PM63 °FOvercast.16 mph66%30.14 "HgN/A
1:00 PM63 °FMild.17 mph67%30.14 "HgN/A
12:00 PM61 °FOvercast.17 mph68%30.14 "HgN/A
10:00 AM59 °FCool.17 mph67%30.14 "HgN/A
9:00 AM57 °FOvercast.16 mph74%30.14 "HgN/A
7:00 AM52 °FCool.10 mph80%30.12 "HgN/A
6:00 AM51 °FOvercast.13 mph84%30.11 "HgN/A
4:00 AM50 °FCool.9 mph89%30.09 "HgN/A
3:00 AM51 °FCool.9 mph90%30.10 "HgN/A
Weather by CustomWeather, © 2014

See weather overviewHow to use our weather pages